METAR Formatted Surface Weather Observation
Issued by NWS Pago Pago

Home | Current Version | Previous Version | Text Only | Print | Product List | Glossary On
Versions: 1 2 3 4 5 6 7 8 9 10 11 12 13 14 15 16 17 18 19 20 21 22 23 24 25 26 27 28 29 30 31 32 33 34 35 36 37 38 39 40 41 42 43 44 45 46 47 48 49 50
000
SAZS31 NSTU 191758
MTRPPG
METAR NSTU 191750Z 12006KT 12SM SCT019 SCT040 26/23 A2991 RMK SLP129
8/800 T02610230 10261 20256 52014=




USA.gov is the U.S. government's official web portal to all federal, state and local government web resources and services.